Theta_e
309 309 309 310 310 310 310 310 310 310 311 310 311 311 310 311 310 310 310 309 309 309 310 310 310 311 311 311 310 309 307 309 312 313 315 315 310 313 314 313 315 312 311 311 309 310 313 315 314 315 316 317 316 315 315 315 314 315 317 317 315 315 315 315 317 316 316 316 317 319 318 318 318 318 320 320 321 318 323 339 343 342 343 342 344 344 342 342
308 309 309 309 310 310 310 310 310 310 310 310 311 310 310 311 310 310 310 310 310 310 311 310 310 310 310 310 309 306 308 312 314 315 317 309 309 315 315 315 316 312 310 309 308 310 313 315 315 315 316 316 315 315 314 314 315 314 317 318 315 316 315 314 316 316 317 317 317 318 318 320 317 317 319 318 321 318 326 342 346 345 347 345 345 344 342 342
308 309 309 309 309 310 310 310 310 310 311 311 311 310 310 310 311 311 311 311 311 311 311 310 311 310 309 309 307 307 310 314 316 319 317 308 310 315 317 317 316 312 312 310 308 310 313 315 317 315 315 315 314 315 314 314 314 314 316 317 316 316 315 315 315 315 316 317 316 317 317 318 318 318 318 318 319 317 325 341 349 348 347 346 345 344 343 343
308 308 308 309 309 309 310 310 310 310 311 311 311 311 311 311 311 311 311 311 311 311 310 311 311 310 309 307 306 308 311 317 322 321 318 315 312 313 316 316 315 312 310 309 308 309 311 313 315 314 314 314 314 314 313 313 314 315 316 315 316 315 315 315 315 316 316 316 316 316 316 317 318 317 319 318 316 320 327 337 348 349 347 345 345 346 345 344
308 308 308 308 308 309 309 309 310 310 310 311 311 310 311 311 312 311 312 311 311 311 311 311 311 309 308 305 305 309 314 323 323 319 318 317 315 315 315 315 314 311 308 308 308 309 311 313 314 314 314 314 314 313 313 313 314 315 315 315 316 314 314 314 314 316 316 316 316 316 316 315 317 316 319 317 316 331 336 337 346 347 346 346 346 347 346 344
308 308 308 308 308 308 309 309 309 310 310 310 310 310 311 311 311 311 311 311 311 311 311 311 310 308 305 304 307 310 318 326 320 317 316 314 315 315 314 314 311 308 306 307 309 310 312 314 315 314 314 313 313 312 312 313 313 314 314 315 315 314 314 314 315 315 316 316 315 315 316 315 315 316 317 316 325 338 342 340 345 346 346 347 347 346 345 345
308 308 308 308 308 308 308 309 309 309 310 309 310 310 310 311 311 311 311 311 311 310 310 310 309 306 303 306 311 312 317 322 318 317 316 312 313 312 311 311 308 306 308 309 310 312 314 315 315 314 313 313 312 312 312 313 314 313 314 314 314 315 315 315 315 315 316 315 316 315 315 316 314 318 316 317 333 342 342 345 346 345 346 347 347 346 345 344
308 308 308 308 308 308 308 309 309 309 309 309 310 310 310 311 311 310 310 310 310 310 309 309 308 305 305 309 315 317 319 320 320 316 313 311 310 310 310 308 306 306 308 311 312 314 315 315 312 312 311 311 312 312 313 313 314 313 313 314 314 315 314 314 315 315 316 315 316 315 315 316 315 317 315 321 337 342 342 345 346 345 345 346 346 345 344 343
308 308 308 308 308 308 308 308 309 309 308 309 309 310 310 310 310 310 310 310 310 309 310 309 308 305 307 311 315 322 323 320 319 314 311 311 308 309 309 307 306 307 310 312 314 315 316 314 312 313 311 311 311 311 313 312 312 314 314 314 314 315 315 315 315 314 316 315 315 315 315 315 315 318 314 321 337 340 339 342 343 345 344 343 344 343 342 341
308 308 307 308 308 308 309 308 308 308 308 308 309 309 309 309 309 309 309 310 310 309 310 309 306 306 310 313 317 325 323 316 317 313 311 309 307 309 309 308 308 310 312 313 314 316 316 315 312 313 312 311 312 312 313 312 313 314 314 315 314 315 315 314 314 315 315 314 315 315 315 315 315 317 314 322 337 337 338 340 340 342 342 340 340 340 339 338
308 308 307 308 308 308 308 308 308 309 310 309 309 309 309 308 307 307 307 308 309 309 310 307 303 307 312 314 318 323 319 314 315 312 311 309 309 308 308 310 310 311 314 313 315 315 316 315 313 313 314 312 312 313 313 313 314 314 314 314 315 315 315 315 314 315 314 314 316 315 315 315 315 316 314 325 336 335 336 339 340 340 340 340 339 338 337 335
307 308 308 307 308 308 307 307 308 310 311 310 309 308 307 306 304 305 305 306 308 308 308 305 304 309 313 317 319 320 317 315 314 312 312 310 309 309 310 313 311 312 314 313 315 315 314 314 313 314 314 313 313 313 313 315 313 313 314 312 314 315 314 315 315 314 314 314 317 315 315 314 315 315 316 327 332 332 334 337 340 339 339 339 338 336 336 335
307 307 307 307 308 307 306 306 308 309 309 308 307 305 306 304 303 304 305 305 306 307 306 304 307 310 314 324 324 316 316 317 313 313 312 310 311 311 312 314 314 314 313 314 314 315 314 313 313 314 314 314 313 313 314 315 314 314 313 313 313 313 312 314 315 315 314 315 316 315 312 315 317 315 319 328 330 331 334 335 336 338 338 338 338 336 335 336
307 307 307 307 307 307 306 307 306 306 306 305 305 304 304 303 303 306 308 307 305 305 305 304 307 311 318 325 321 316 317 315 314 314 312 312 311 312 313 314 315 315 314 314 314 315 314 313 313 313 313 313 313 314 314 314 315 314 313 313 312 311 311 313 314 315 314 314 316 315 312 315 316 314 322 329 331 332 334 334 334 336 338 337 337 336 336 336
307 307 306 306 306 305 306 306 304 304 304 304 303 304 304 302 304 310 312 310 307 305 305 306 307 312 321 322 318 319 317 313 314 312 313 314 312 313 314 314 315 314 314 315 315 315 313 313 314 312 313 313 314 314 313 313 314 314 313 313 313 310 310 312 315 314 313 314 316 315 313 315 316 315 321 327 330 331 332 333 332 334 337 337 336 334 335 336
307 306 306 306 305 305 305 303 303 303 303 303 303 303 302 302 306 311 313 311 308 306 307 311 312 314 322 323 316 316 314 314 314 311 313 314 313 314 313 313 314 313 314 315 314 313 313 314 312 312 313 313 314 313 312 313 313 314 313 312 314 310 309 311 314 315 314 315 315 315 315 316 317 318 320 322 325 330 331 330 330 334 338 338 337 335 334 335
306 306 306 305 305 304 302 301 302 302 302 303 302 302 304 309 311 311 313 309 307 308 309 314 314 315 323 322 317 316 312 313 313 312 313 312 313 313 312 312 312 312 313 313 313 313 313 313 312 314 314 314 316 314 314 313 313 317 315 313 313 312 311 311 313 315 315 315 316 316 316 316 317 318 320 319 320 326 330 330 331 333 336 336 337 336 335 335
305 306 305 304 303 301 301 301 301 301 302 302 302 303 308 316 315 313 314 311 310 313 313 313 315 318 323 320 319 319 313 312 314 313 313 312 313 312 311 311 311 313 312 312 313 313 313 314 314 316 316 316 316 315 314 314 315 318 316 315 315 313 313 312 312 315 315 316 316 317 316 317 319 319 320 320 318 325 330 331 332 333 333 335 336 336 335 335
304 305 305 302 300 300 301 301 301 301 302 302 302 304 312 318 318 317 315 313 315 319 320 320 319 321 322 319 320 319 315 315 315 313 313 312 313 313 312 312 313 313 312 313 314 312 314 315 315 316 317 318 318 316 316 317 317 318 318 316 315 313 313 314 314 316 316 316 317 318 318 318 319 320 321 322 320 327 331 332 333 333 332 333 334 334 335 334
302 304 304 302 300 301 300 300 301 300 301 301 302 309 319 324 326 324 318 316 318 319 318 319 318 317 317 316 319 318 316 315 314 314 312 313 313 313 313 312 313 313 314 316 317 316 316 317 317 317 317 319 324 325 324 326 326 321 318 316 315 313 312 316 315 316 319 319 318 320 320 319 319 321 323 324 322 327 331 334 332 332 332 332 333 334 334 333
301 302 304 302 299 300 300 300 301 300 301 301 304 314 322 323 322 322 321 318 318 318 316 316 316 316 316 315 317 317 315 314 314 314 313 313 313 313 313 312 313 315 315 315 317 319 317 318 319 320 322 326 330 330 328 331 329 324 320 316 315 313 313 317 317 316 323 324 321 321 320 321 322 321 323 323 322 325 330 335 332 331 332 330 331 334 334 333
301 302 303 303 300 300 300 301 301 301 302 302 307 314 315 316 318 316 317 318 317 318 318 318 318 317 315 315 317 317 316 314 313 313 314 314 312 313 312 312 312 315 318 315 317 320 317 319 321 320 326 331 329 328 330 331 327 323 320 317 316 315 315 321 322 316 319 322 320 321 321 323 325 323 324 324 322 323 327 332 332 332 332 330 331 333 334 333
301 301 302 304 302 300 300 301 302 303 303 305 310 314 313 315 318 316 317 319 318 318 317 318 319 317 315 316 316 316 316 314 313 313 314 314 313 312 312 312 312 313 316 317 319 320 319 320 321 322 327 329 325 326 330 328 325 323 319 316 316 314 313 320 323 320 323 323 321 322 324 326 327 325 327 327 326 325 325 328 330 331 332 331 331 334 335 334
301 301 302 304 303 301 301 303 303 305 306 307 309 314 313 314 316 316 320 321 319 318 317 317 318 318 316 315 317 317 316 315 314 314 314 314 313 312 312 312 312 312 314 315 317 318 317 318 321 325 328 327 324 323 323 321 322 325 322 317 315 315 315 317 323 327 328 330 329 327 326 330 329 324 327 329 327 326 325 324 326 328 330 330 332 336 335 335
300 301 301 302 304 303 301 303 305 308 310 310 311 313 314 315 316 318 321 324 324 321 318 317 317 318 317 315 316 317 316 315 315 315 314 314 313 313 313 313 313 314 313 313 315 314 315 320 324 325 325 324 323 322 321 321 320 323 327 324 319 319 319 319 324 328 324 325 331 328 324 331 333 321 323 328 325 323 323 324 324 325 329 329 332 335 334 334
300 301 301 302 304 303 304 309 311 311 312 313 315 315 316 317 317 318 324 329 328 323 318 317 317 317 315 315 316 316 316 315 315 316 315 314 314 314 313 314 314 313 313 314 316 315 315 321 324 323 323 323 320 320 322 324 320 319 325 327 322 319 320 322 323 321 319 323 332 327 323 330 332 323 323 325 324 322 324 326 325 324 326 328 331 333 332 334
300 301 300 301 303 303 309 315 312 309 310 313 314 313 316 318 315 320 329 331 329 324 316 314 314 315 314 315 315 315 316 316 315 315 315 315 315 314 313 314 314 313 314 316 316 319 322 321 321 322 322 319 318 320 323 323 318 319 326 323 320 320 320 323 321 317 319 324 328 325 321 323 324 324 326 323 321 323 324 325 326 324 324 326 331 332 331 332
300 301 300 301 302 304 307 307 306 308 309 309 310 311 315 315 315 322 331 329 329 321 314 312 313 313 313 314 315 314 315 316 316 316 315 315 314 314 313 313 314 314 315 315 314 321 325 323 322 322 320 317 318 319 323 321 317 321 328 322 318 318 319 322 320 317 320 319 320 325 321 317 321 328 329 322 319 321 325 326 324 324 323 323 327 331 331 332
300 300 301 301 301 304 305 303 304 310 309 306 309 313 315 314 317 326 330 330 325 316 314 313 313 314 314 315 316 315 315 314 315 315 314 314 314 314 313 313 313 314 314 314 315 319 322 321 321 321 318 318 319 318 318 317 318 322 323 320 318 318 320 321 319 319 322 322 321 324 320 316 323 328 325 323 321 321 327 328 324 323 322 322 325 328 330 332
300 300 301 300 302 308 311 307 308 311 313 312 313 315 314 316 323 329 330 330 322 316 315 312 312 315 314 315 316 316 315 315 314 315 314 314 314 313 313 314 313 314 316 316 317 318 317 318 319 317 317 317 316 317 316 314 318 321 319 318 319 320 321 319 320 322 322 325 326 324 319 318 322 325 323 324 326 328 329 327 324 323 322 324 324 323 325 327
300 300 300 300 302 307 311 314 314 314 316 317 316 316 317 319 324 328 329 325 320 320 316 313 313 314 314 314 315 316 315 315 315 314 315 315 315 314 313 315 314 314 317 318 318 318 314 315 317 316 316 316 313 313 314 314 315 317 318 319 319 323 324 321 325 328 324 326 327 320 320 319 319 324 327 325 326 329 330 326 325 324 322 324 322 321 322 323
300 301 300 301 302 302 305 312 312 312 316 318 317 317 319 321 323 326 326 322 323 324 315 314 316 314 315 315 315 316 315 316 315 314 315 315 317 316 315 316 316 314 316 318 319 319 319 316 314 315 316 314 313 312 312 313 314 315 317 317 315 318 324 323 326 329 327 329 327 320 323 323 323 329 328 322 322 324 325 324 323 323 323 323 322 322 323 325
301 301 301 301 302 302 304 307 307 311 316 318 319 319 320 323 325 325 324 321 324 322 314 316 316 314 316 314 314 316 315 316 315 315 315 313 316 318 314 314 315 316 318 319 317 318 323 323 316 314 316 312 313 312 312 313 313 314 315 316 316 316 321 324 324 325 326 329 328 322 324 323 325 334 331 321 321 321 321 322 323 324 325 323 322 325 327 327
301 300 302 304 302 302 303 304 306 310 315 318 321 322 322 324 325 323 321 321 320 318 315 317 317 315 316 314 315 315 313 316 315 314 315 314 315 317 316 313 312 315 318 317 317 316 319 324 322 316 315 313 312 312 313 312 312 315 315 316 319 318 322 326 326 326 325 324 324 322 324 324 325 333 331 321 319 319 320 322 324 325 323 323 325 327 329 329
301 301 304 309 310 306 303 304 307 309 315 320 322 322 323 324 322 320 320 319 316 316 315 316 317 316 315 313 315 315 313 315 314 313 315 315 316 317 318 316 313 315 318 317 317 314 312 317 320 316 313 312 313 312 313 312 314 319 315 314 319 322 324 326 327 329 324 320 324 324 325 329 331 332 328 321 318 319 320 322 322 324 324 325 327 328 329 330
302 301 304 309 312 311 307 306 307 309 317 322 321 322 323 321 318 317 317 315 314 314 314 315 317 315 314 315 315 314 314 314 314 315 315 315 315 316 316 317 314 314 320 321 318 313 312 316 317 313 313 313 314 314 312 313 316 317 315 315 321 323 324 323 323 325 323 324 328 324 319 322 324 325 324 321 320 318 319 322 321 324 326 326 327 328 329 330
305 305 308 309 310 314 314 310 307 312 321 323 322 324 321 316 315 315 314 314 314 313 312 316 320 316 313 315 315 314 314 314 315 315 316 315 315 315 313 315 316 314 317 322 321 316 314 318 318 312 312 314 315 314 313 313 314 313 312 316 318 317 321 324 321 320 321 323 324 320 319 319 320 324 324 319 320 319 318 322 323 325 326 326 327 328 329 330
308 309 311 310 306 311 317 315 311 317 324 324 324 324 318 314 314 313 313 314 313 313 311 316 321 317 313 315 315 313 313 314 315 314 314 314 316 317 312 312 315 313 313 316 320 318 314 317 320 315 313 314 313 313 314 314 313 312 311 314 317 316 317 319 319 321 322 321 320 320 319 318 319 325 325 319 319 319 318 321 324 324 325 326 327 328 329 330
311 313 315 311 303 306 314 316 316 320 324 324 323 322 316 314 313 312 312 312 312 312 312 314 316 314 314 315 315 314 314 314 314 314 313 313 318 321 314 312 314 314 314 315 316 318 315 317 322 320 313 313 313 316 317 317 316 315 313 312 314 315 314 316 319 321 322 320 321 321 320 322 327 327 323 321 322 322 321 321 323 323 325 326 328 328 329 330
313 316 318 314 310 309 310 316 320 321 323 323 321 318 315 313 313 312 312 312 312 313 313 313 313 312 314 315 314 316 319 316 314 314 313 312 318 321 316 313 314 313 314 313 314 317 317 318 324 323 315 313 314 317 317 315 316 317 316 314 318 321 318 317 319 316 317 321 323 320 319 325 331 326 321 322 325 325 325 323 324 324 325 326 327 328 329 329
311 314 316 314 315 315 314 318 321 321 321 320 319 315 314 313 312 311 311 312 312 312 312 312 312 311 313 314 315 315 317 316 314 314 315 315 317 318 315 314 313 313 315 316 316 319 319 319 323 324 317 313 314 313 312 313 313 315 316 315 324 331 324 319 322 319 318 325 328 326 326 330 332 326 324 325 324 325 324 324 325 324 324 326 326 328 328 328
313 315 314 314 316 317 319 320 319 318 317 317 316 314 313 313 312 311 311 311 312 312 312 311 311 311 311 313 315 314 314 315 315 314 315 317 316 315 314 313 311 312 315 317 317 319 320 319 319 321 316 312 312 312 311 312 311 313 315 314 318 324 320 317 322 324 321 321 326 329 329 334 335 327 326 328 324 321 323 323 324 324 324 325 325 326 327 327
315 315 314 315 317 316 319 321 319 316 315 314 313 312 313 312 312 311 311 312 312 312 311 311 310 310 311 311 312 313 314 315 315 314 315 315 313 313 312 312 312 311 314 317 319 320 321 319 317 318 317 316 314 312 311 311 309 311 315 315 313 314 316 315 317 321 322 319 320 323 321 327 335 330 326 327 323 321 323 323 322 323 324 324 323 324 325 324
312 313 313 314 315 316 319 320 319 318 316 314 312 312 312 311 311 311 311 311 312 312 312 312 310 311 312 312 311 312 315 316 314 314 317 314 311 313 312 311 314 314 315 319 322 321 320 320 318 317 317 320 319 316 317 316 313 312 315 316 314 314 318 321 320 323 324 319 319 322 320 323 332 330 323 323 321 320 324 323 321 323 322 321 322 322 323 323
312 315 316 314 315 318 320 319 317 318 317 315 315 315 313 312 312 311 311 311 311 312 312 312 311 312 312 312 314 312 312 315 314 314 316 313 311 313 311 311 314 315 318 321 321 320 320 320 320 318 318 321 322 319 317 315 313 314 315 314 315 315 317 323 324 320 320 320 319 321 323 323 325 324 322 321 319 320 323 322 320 321 321 320 322 322 323 323
314 317 317 315 316 317 318 317 314 315 315 314 315 316 313 312 313 311 312 312 311 311 311 311 311 312 312 314 315 314 312 312 313 313 313 312 311 311 312 313 314 314 317 319 319 320 319 318 319 318 318 320 319 314 312 311 311 313 313 313 314 317 317 319 321 319 318 322 323 323 327 327 322 320 320 320 320 322 324 324 324 323 321 320 322 322 323 324
314 315 314 312 315 317 317 315 312 313 314 313 314 315 313 313 312 312 312 312 311 311 310 310 310 311 313 314 316 316 314 312 313 315 314 313 311 310 311 313 314 316 316 314 316 318 316 317 318 316 314 314 311 309 309 309 310 310 311 314 315 318 318 314 316 319 318 319 323 324 325 323 319 318 319 319 319 321 322 325 328 327 323 321 321 322 321 322
311 313 311 310 313 316 316 313 311 311 312 313 314 314 314 314 314 314 313 312 311 312 312 313 312 310 311 312 314 316 316 316 318 318 318 316 315 313 313 311 312 316 315 311 315 317 314 316 317 312 311 311 309 310 310 309 310 310 312 315 315 317 318 314 315 319 316 315 320 321 319 317 316 316 316 318 319 317 318 324 327 326 323 321 320 320 320 320
307 310 310 309 311 314 314 312 311 312 313 314 315 314 313 315 315 313 312 313 314 312 312 314 312 310 311 312 313 316 319 321 321 319 317 318 318 318 316 314 312 312 313 311 314 318 318 317 315 312 312 312 310 311 311 309 311 311 311 313 312 313 316 315 316 317 315 317 320 321 319 317 315 314 314 316 317 315 315 318 319 319 320 321 322 322 321 321
303 306 308 309 310 312 313 311 311 312 313 314 315 313 311 312 314 312 310 312 315 313 311 311 310 309 310 310 311 313 314 317 319 317 314 316 319 318 316 316 314 312 312 312 315 318 318 316 314 314 316 315 311 311 311 310 310 310 311 314 315 315 317 318 318 317 315 316 318 320 320 317 314 314 314 314 315 314 313 314 314 314 315 317 320 323 325 325
300 303 305 308 310 312 312 311 310 312 313 313 313 312 310 310 311 311 309 309 311 311 309 309 310 310 309 309 309 309 309 312 314 313 311 312 313 313 312 313 312 312 312 313 316 317 316 315 315 314 316 317 312 309 311 311 310 311 314 316 317 316 316 317 317 317 315 314 317 320 318 314 313 315 315 315 315 315 314 313 314 314 313 312 314 316 319 321
299 301 303 307 311 313 311 309 308 311 313 311 310 309 309 308 307 309 311 310 308 308 307 308 309 310 308 307 308 307 306 307 309 309 309 309 308 308 309 309 308 310 311 312 316 317 314 315 317 314 315 316 312 311 313 312 312 316 317 315 314 315 316 317 316 316 315 314 316 317 314 312 313 314 314 315 315 314 313 313 312 312 311 310 310 311 311 312
Wind_Speed
11 11 11 10 10 10 10 11 10 11 11 11 11 11 11 11 11 11 11 12 11 12 12 12 13 13 14 14 14 15 17 17 16 12 12 15 13 8 8 9 5 2 6 10 11 8 8 10 13 16 13 8 4 3 6 6 4 3 2 3 4 5 5 6 8 6 2 1 5 5 6 6 5 5 4 4 4 1 4 11 10 10 9 13 20 28 30 29
11 11 11 11 11 10 11 11 11 10 10 11 11 11 11 11 11 11 11 12 12 12 11 12 13 13 13 13 13 14 16 17 15 15 18 16 13 12 14 15 10 6 8 11 12 11 9 8 11 12 7 4 4 4 5 4 4 4 2 3 5 6 7 9 11 7 3 2 4 5 6 4 4 5 3 3 4 4 6 10 12 14 13 17 23 26 28 28
12 11 11 11 11 11 11 11 11 10 11 11 11 11 11 11 11 11 12 11 12 11 11 12 12 12 12 12 12 12 14 14 10 12 13 10 14 17 17 18 14 11 12 13 14 15 13 12 12 10 5 4 4 4 6 4 4 5 3 3 5 6 8 11 12 9 4 2 5 6 5 3 4 4 1 3 6 7 5 8 10 13 14 16 17 21 26 25
12 12 11 11 11 11 11 11 11 11 11 11 11 11 11 11 11 11 11 11 11 11 11 11 11 12 11 11 11 11 11 8 3 6 4 5 13 15 17 17 14 13 14 15 15 15 17 17 13 8 6 5 5 5 6 4 3 4 5 6 6 6 9 11 11 7 4 5 6 5 6 5 5 3 1 2 3 5 4 7 12 14 17 18 17 18 20 21
13 12 12 12 12 11 11 11 11 11 11 11 11 11 11 11 11 11 11 11 11 11 11 11 11 11 10 11 9 9 7 2 1 5 3 5 10 13 16 17 14 14 14 13 12 14 18 17 12 7 5 4 4 4 6 7 6 3 5 8 8 8 9 11 10 4 4 5 6 5 6 4 5 3 1 0 1 0 1 8 15 16 16 17 17 15 16 17
13 12 12 12 12 11 11 11 11 11 11 11 11 11 11 10 10 10 10 10 10 11 11 10 10 9 10 10 7 6 2 1 4 4 5 6 9 12 14 14 13 13 11 10 10 11 13 12 9 5 3 4 5 5 7 8 7 5 5 7 9 10 9 9 9 5 2 2 3 3 4 4 5 4 3 1 4 6 6 12 15 14 13 12 12 11 12 14
13 13 12 12 12 11 11 11 11 11 11 11 10 10 10 10 11 10 11 10 10 10 10 10 9 8 10 9 3 2 1 5 10 5 5 7 9 11 12 11 11 11 10 9 10 10 9 9 7 4 4 4 5 7 9 9 7 7 6 6 9 9 10 9 7 7 3 2 1 3 5 6 6 4 4 2 10 13 15 18 16 13 13 12 10 8 8 8
14 13 12 12 12 12 11 11 11 11 11 11 11 10 10 10 11 11 10 10 9 9 9 9 8 7 9 8 2 1 2 8 10 6 7 7 8 10 11 11 11 11 11 11 11 10 9 9 6 4 5 5 6 8 9 9 7 8 8 8 9 8 10 9 8 9 5 2 1 3 5 8 8 3 4 3 14 15 17 19 17 16 13 12 10 8 8 8
14 13 13 12 12 12 12 12 11 11 11 11 11 11 11 11 10 11 10 10 10 9 9 8 7 6 6 5 2 2 3 6 6 5 5 6 8 11 13 11 12 12 10 13 15 13 9 6 7 7 6 6 8 8 7 6 5 7 9 7 6 6 8 10 10 8 5 3 3 4 7 8 7 3 5 2 15 16 17 18 16 16 13 12 10 8 8 8
15 14 13 13 12 12 12 12 12 12 12 11 11 11 11 11 11 11 10 10 9 8 8 7 6 4 4 4 2 2 4 4 4 3 3 6 8 13 14 11 12 13 10 13 15 14 10 8 8 6 7 6 6 7 7 6 5 5 5 4 4 6 7 9 9 5 5 5 6 5 6 9 8 4 5 3 16 16 18 18 15 15 12 11 9 8 9 9
15 14 13 13 13 12 12 12 12 12 12 12 12 12 11 11 11 10 9 9 8 8 6 5 5 4 4 5 2 2 5 4 5 4 5 6 9 13 14 11 13 15 13 12 15 19 16 14 9 2 3 3 4 7 6 6 8 8 6 3 5 6 7 8 7 5 6 4 7 7 7 10 7 5 7 7 16 16 18 17 15 15 12 11 10 9 8 8
15 14 14 13 13 12 12 12 13 12 13 13 13 12 12 12 11 10 9 8 8 6 4 3 3 3 4 3 5 7 7 4 7 10 7 6 8 11 12 12 13 16 16 12 15 18 15 14 9 4 3 4 4 5 5 8 8 8 8 4 5 6 8 9 7 7 7 3 6 6 6 9 6 7 8 11 15 15 17 15 15 13 11 11 10 9 7 8
15 15 14 13 12 12 12 12 12 13 13 13 13 13 13 13 12 11 10 8 7 5 3 2 1 2 3 2 8 9 6 6 7 11 8 7 8 9 9 12 14 17 20 16 14 15 15 14 6 4 5 5 4 4 7 11 6 6 6 3 3 5 7 9 7 9 9 6 7 5 4 7 7 10 7 15 16 16 15 12 13 11 10 9 8 9 7 7
16 15 14 13 12 12 12 11 12 13 13 13 13 14 14 13 12 10 9 7 6 4 1 1 2 1 1 5 12 11 6 6 7 9 9 10 11 12 13 15 14 16 18 17 16 17 16 11 4 3 5 5 5 6 8 8 5 3 4 3 3 3 7 7 8 11 10 8 8 7 4 6 8 10 8 17 17 18 14 11 12 11 10 9 7 9 7 6
16 15 14 13 12 11 11 11 12 12 13 13 13 14 13 12 11 9 8 6 4 3 1 1 2 2 2 7 14 12 9 8 7 10 11 13 14 13 13 14 12 11 12 14 15 17 16 8 3 2 3 6 6 6 5 4 4 3 2 5 3 4 8 8 10 14 12 7 9 9 4 6 8 7 9 14 16 18 14 12 13 12 13 11 8 8 7 5
17 16 14 13 11 10 10 10 11 12 13 13 13 14 12 11 10 7 6 4 3 3 2 1 5 5 2 4 7 6 9 9 9 12 13 15 16 13 12 12 9 10 13 13 12 14 12 4 1 3 4 6 5 4 4 4 4 3 4 5 4 6 9 7 9 13 12 6 9 10 4 2 5 3 9 9 14 18 14 12 12 13 13 12 9 8 8 6
18 16 14 12 11 9 9 9 10 11 12 13 13 13 11 10 8 6 5 2 2 2 4 3 3 5 3 6 6 4 8 11 12 15 15 16 18 16 12 9 8 11 12 12 11 10 5 1 2 3 3 4 4 3 3 5 5 3 4 6 6 7 7 4 5 9 11 7 8 8 5 2 4 3 9 5 9 15 14 11 11 12 11 10 10 8 8 7
20 17 14 12 10 9 9 9 9 11 12 12 13 12 11 10 8 5 3 1 1 2 5 7 4 1 4 8 7 6 11 15 14 14 16 15 17 17 13 10 7 8 7 6 8 6 2 2 2 2 3 3 4 3 3 5 4 4 4 5 5 7 5 6 6 7 11 9 7 7 6 5 7 3 8 7 7 12 14 12 10 11 11 10 11 9 8 7
22 19 15 13 10 9 9 9 9 10 11 12 11 11 11 8 5 4 2 2 2 0 3 4 5 2 3 7 10 12 11 14 14 12 15 15 14 14 12 10 6 6 5 3 5 5 3 1 1 3 4 5 6 5 5 5 2 5 6 4 5 6 5 6 9 8 10 8 6 7 6 6 6 6 8 9 7 12 15 12 8 9 10 10 10 10 10 9
25 22 18 13 10 9 9 9 9 10 12 11 10 9 7 4 2 0 3 4 5 7 7 5 8 6 9 6 7 12 9 12 10 9 14 13 10 8 6 6 5 5 5 3 4 5 4 3 4 6 7 8 7 3 2 2 3 5 6 6 7 8 7 1 10 8 6 7 4 3 4 6 5 7 8 7 8 12 16 13 10 10 8 9 11 12 14 12
26 24 20 14 11 9 9 9 10 11 11 9 8 4 2 4 3 2 1 6 9 13 13 12 11 11 14 13 6 10 8 6 5 8 14 13 8 5 2 5 5 4 5 6 5 3 4 5 7 9 9 10 7 3 2 4 5 5 4 5 7 7 7 4 8 4 5 7 2 4 2 5 4 4 6 5 9 10 15 14 12 12 9 9 10 13 13 10
26 25 22 16 11 9 9 10 10 11 11 8 4 2 4 7 8 7 5 4 8 12 14 16 16 13 16 23 17 12 6 4 5 6 12 13 7 4 4 6 5 5 5 6 4 3 4 5 10 12 9 7 4 2 4 5 5 4 4 5 5 4 5 6 6 6 6 4 2 5 5 6 6 6 6 3 8 8 13 16 15 15 11 10 10 12 12 10
26 24 24 18 13 10 9 10 11 12 13 9 6 7 7 12 14 12 7 3 7 10 12 13 15 13 13 19 16 14 6 5 7 7 12 13 6 5 5 5 7 7 6 6 5 4 4 7 12 11 7 5 1 3 5 5 4 3 2 3 5 5 3 4 3 4 5 3 1 3 6 6 6 6 7 2 4 4 7 12 13 14 13 12 11 13 14 12
25 24 24 20 15 11 9 12 13 14 15 12 13 14 11 15 14 10 5 3 6 8 11 12 13 11 13 14 9 10 5 5 7 8 15 14 6 5 5 6 6 7 6 9 9 8 7 6 5 5 7 6 3 3 2 3 3 4 4 3 5 7 3 1 3 2 4 4 2 5 6 5 5 5 6 5 3 6 5 8 9 9 10 13 12 12 14 14
25 24 23 22 17 10 11 13 11 11 12 10 15 17 13 13 9 9 6 2 4 5 8 10 9 10 16 15 9 9 6 6 7 8 16 16 9 6 5 5 5 6 8 11 10 9 9 6 6 7 4 4 5 2 2 4 1 4 5 6 7 8 6 1 2 3 5 5 3 5 4 5 6 5 7 6 2 7 6 7 7 5 8 13 13 12 12 11
24 24 23 22 18 12 9 7 6 10 11 10 15 17 10 6 7 9 4 1 4 4 5 5 5 9 14 11 7 6 4 6 10 11 14 18 14 7 5 4 4 7 9 8 4 3 5 5 6 7 3 2 4 1 2 4 2 3 4 5 5 8 7 3 2 3 3 2 3 5 5 3 6 6 7 5 3 6 5 6 6 5 9 12 12 11 11 10
23 23 22 22 20 12 5 6 10 12 9 11 17 18 9 9 11 8 4 1 4 3 4 2 2 7 9 8 8 4 2 5 8 10 13 17 13 5 4 5 4 6 5 1 1 2 2 2 3 6 4 1 2 2 4 4 4 3 5 4 5 6 6 3 2 1 3 3 2 2 5 2 4 6 7 6 4 3 4 7 7 5 7 11 13 12 12 11
23 23 22 20 20 13 8 10 13 11 9 12 17 18 13 14 11 5 4 1 4 1 3 1 2 3 3 8 10 6 6 7 4 6 14 19 13 4 5 9 6 6 7 2 4 5 2 4 4 5 4 2 3 4 6 5 5 5 6 4 2 4 6 6 4 3 2 1 3 4 1 2 3 6 7 8 4 3 6 6 7 5 5 9 12 11 8 8
22 22 22 20 19 14 9 11 10 8 11 12 14 17 15 13 8 4 3 0 3 2 1 1 1 3 2 5 9 7 9 7 2 4 11 16 12 4 3 6 4 8 9 6 6 5 4 5 6 5 4 3 4 6 7 7 7 6 4 2 2 3 5 6 5 3 3 4 2 5 1 1 4 6 4 4 3 5 6 6 7 9 9 11 11 10 9 9
23 21 21 22 17 10 8 11 13 10 15 13 13 15 12 8 4 3 1 1 3 2 2 1 1 3 5 5 7 8 9 7 3 6 7 7 7 4 1 2 2 5 6 6 5 5 4 2 4 3 4 3 3 4 6 8 6 4 1 2 4 2 2 4 3 1 4 2 4 5 3 3 3 5 3 1 3 5 5 5 7 10 9 9 9 8 8 8
24 21 20 22 16 8 6 8 10 8 15 11 10 11 7 3 2 2 1 1 4 3 2 2 3 5 7 7 5 6 8 8 6 7 6 3 3 4 0 2 2 2 4 6 5 6 5 1 2 2 5 4 3 4 5 7 4 3 3 3 5 4 3 2 4 4 3 3 4 2 3 3 3 4 4 2 3 5 7 7 8 10 9 8 8 8 8 8
25 21 20 20 19 15 11 11 10 8 13 11 8 5 2 2 0 3 2 3 3 4 2 1 5 7 9 8 6 6 6 6 7 4 5 4 3 4 3 3 3 0 3 4 4 5 6 4 3 2 5 5 2 1 5 7 4 2 3 4 4 3 4 2 3 2 1 4 4 3 5 1 4 5 4 1 3 3 5 7 8 10 10 9 9 8 9 9
25 23 21 19 19 20 19 17 16 11 12 11 5 2 2 1 2 3 2 2 3 3 4 6 6 7 10 9 7 8 6 5 6 3 4 6 5 5 6 8 7 3 3 3 2 3 4 5 3 1 3 5 4 2 1 3 1 3 3 3 3 2 0 1 2 1 1 3 5 3 3 1 3 3 5 3 3 6 8 9 9 9 9 8 9 10 11 10
26 23 20 17 18 21 20 18 15 11 10 9 3 1 1 2 3 3 3 4 5 7 5 6 10 11 10 9 7 8 7 6 7 6 6 6 4 4 6 8 10 6 4 2 1 1 2 4 4 2 2 5 5 5 6 4 2 3 4 5 5 4 4 2 1 1 2 3 4 2 2 1 2 3 6 1 6 9 10 10 8 9 9 9 10 11 11 9
25 21 17 15 17 20 19 16 14 11 9 5 1 1 3 3 3 2 4 5 6 9 6 2 6 10 8 6 6 9 6 5 8 7 5 6 4 4 5 5 8 6 3 2 2 2 2 4 5 4 7 8 4 3 5 2 1 4 1 4 3 4 5 3 3 5 4 1 2 2 2 3 2 4 6 2 7 8 9 9 9 9 9 11 10 9 9 8
24 20 15 14 18 18 16 15 14 12 7 1 1 3 4 4 4 3 3 6 7 6 2 3 4 7 5 2 4 8 8 7 7 5 3 5 6 6 6 5 6 7 4 4 1 1 3 5 6 3 11 9 2 1 1 3 2 3 2 1 4 5 7 4 2 2 3 3 2 2 1 1 0 3 5 2 6 7 8 7 8 9 10 11 9 7 8 7
24 18 11 12 18 18 15 13 15 13 6 2 3 4 4 4 6 7 7 9 11 9 3 1 2 3 4 3 3 6 6 6 5 4 2 4 5 6 8 8 8 8 5 5 1 1 2 3 8 3 4 4 4 3 2 2 4 1 2 3 2 1 5 4 1 1 3 1 3 3 3 2 1 3 4 2 5 6 8 8 9 10 10 11 9 8 8 7
21 12 10 17 22 20 16 13 16 13 4 2 4 4 4 5 7 9 10 10 12 10 5 1 2 3 2 3 6 5 3 3 3 4 3 2 2 2 4 5 6 5 4 7 3 2 2 1 7 6 4 3 1 3 1 4 1 2 5 3 2 2 1 1 1 1 2 2 2 4 3 1 2 2 5 4 4 5 6 9 11 10 10 10 8 8 8 7
12 5 6 13 16 16 18 19 16 8 3 3 4 3 4 7 9 11 13 12 11 9 5 1 1 4 5 3 5 5 1 1 2 3 3 3 3 3 6 3 2 5 6 7 3 1 2 2 4 6 7 7 5 3 2 3 4 2 4 3 2 3 3 2 2 3 3 3 2 3 1 2 2 2 4 4 2 5 4 6 9 10 10 10 8 8 7 6
7 2 4 12 13 14 21 20 12 4 3 4 4 4 5 7 9 11 13 12 9 5 2 2 3 2 3 3 4 3 2 2 4 4 2 1 1 2 3 3 1 3 5 5 3 2 3 2 2 6 8 6 4 1 2 2 1 1 1 2 2 1 2 1 2 0 3 3 1 1 2 3 4 2 4 3 5 6 5 6 7 7 9 9 8 8 7 7
4 1 6 9 3 15 19 12 4 3 3 3 4 6 7 7 9 11 12 12 8 1 3 4 5 4 4 3 3 4 2 2 3 3 2 2 4 1 2 3 1 4 4 4 4 2 2 2 1 3 5 3 4 6 5 2 0 2 2 3 2 2 4 3 4 4 0 3 3 3 1 5 5 2 4 3 5 5 7 9 7 7 9 8 8 8 7 7
2 1 7 1 18 22 12 4 2 3 3 4 5 7 8 8 9 11 10 10 8 3 1 2 5 5 5 3 2 3 1 2 3 3 1 1 2 2 4 7 5 6 5 4 3 1 1 3 2 1 3 4 7 10 9 8 6 0 3 3 3 3 5 4 3 4 2 1 2 4 2 4 5 3 5 4 3 3 8 11 8 7 8 8 8 7 7 7
1 4 14 5 15 16 5 1 3 2 3 5 7 10 10 8 9 10 8 5 4 5 2 2 4 5 4 3 1 2 2 1 3 2 1 3 5 5 7 9 9 8 5 3 2 2 2 3 2 2 4 5 8 10 9 9 7 3 1 3 4 2 3 4 3 3 2 1 1 3 0 3 5 4 3 3 5 3 8 10 10 8 6 7 8 7 7 7
3 4 10 8 7 7 4 3 4 4 4 6 8 10 10 9 9 9 7 4 3 4 4 4 4 3 2 3 3 2 1 1 1 1 1 2 3 3 2 5 8 7 3 2 1 1 1 1 2 1 3 5 6 7 7 7 6 3 3 4 4 3 5 4 2 3 2 1 3 4 1 3 5 3 3 4 6 8 8 7 9 8 6 7 7 6 7 6
4 3 4 6 7 5 3 3 4 4 5 6 7 7 6 7 7 8 7 5 4 4 4 5 5 4 3 4 6 6 1 3 1 2 3 4 5 6 5 6 9 6 2 4 5 3 1 1 3 4 2 1 1 0 2 5 5 3 4 6 4 4 6 4 2 4 2 3 2 4 3 4 4 5 6 7 8 9 7 6 7 7 6 7 6 6 6 6
3 2 3 4 2 1 2 3 2 4 5 5 4 4 4 4 6 8 7 4 3 5 5 6 6 5 5 5 5 7 5 0 1 2 2 1 3 6 7 9 9 7 5 7 8 4 2 1 2 3 5 4 3 3 2 4 4 4 6 7 6 5 6 5 3 2 2 1 3 1 5 3 1 3 5 5 7 7 6 6 6 5 5 6 6 5 4 5
3 1 4 4 4 4 3 3 3 3 5 4 2 3 4 4 5 5 3 2 4 8 7 7 6 4 4 4 2 3 6 5 5 7 7 6 3 4 9 11 8 7 6 6 5 4 3 2 1 1 2 3 5 7 8 7 6 5 6 7 6 6 6 4 0 4 4 2 4 2 5 4 4 5 4 3 5 5 4 6 5 5 5 4 5 7 6 5
4 1 3 4 3 4 4 5 5 5 7 4 1 4 5 5 5 3 2 2 4 7 6 6 8 8 8 7 3 2 4 5 6 7 7 7 5 3 6 7 6 6 5 3 3 4 4 1 3 2 3 5 5 7 8 7 6 6 5 5 6 6 6 4 4 5 2 1 5 4 3 1 3 1 2 4 5 5 5 5 6 7 6 4 3 5 6 6
4 2 4 5 4 4 6 7 6 5 7 6 3 4 5 5 6 6 3 2 3 7 7 6 9 12 13 13 8 5 4 4 3 4 4 5 5 3 4 4 3 4 4 2 2 3 4 2 2 1 2 4 5 7 8 7 7 7 6 6 6 6 5 4 4 4 2 2 6 4 4 2 2 4 4 4 5 6 8 6 3 3 3 4 4 4 2 1
4 2 4 5 5 5 6 7 7 3 5 7 5 6 6 5 5 6 4 3 1 3 5 7 11 12 13 15 12 8 8 6 4 4 5 5 5 3 3 2 1 2 3 1 1 3 3 1 1 2 3 4 5 6 8 7 7 7 7 7 6 6 7 5 3 5 4 2 2 6 8 5 4 4 5 6 7 8 10 9 8 7 5 3 1 3 4 2
9 7 6 4 4 6 5 6 5 2 4 6 5 5 7 9 9 6 6 8 8 7 6 7 10 9 10 14 12 9 10 9 6 6 6 4 3 4 3 2 3 4 3 1 2 3 2 0 1 4 3 3 4 4 6 6 8 8 7 6 5 5 4 3 2 3 3 4 7 9 8 4 6 5 6 7 8 9 9 8 7 7 8 9 8 4 1 2
15 11 10 4 3 5 5 4 6 5 3 5 6 6 7 11 14 10 5 8 14 14 10 10 11 7 7 11 10 9 11 11 8 7 6 4 5 5 4 5 5 3 2 2 2 2 3 2 1 2 2 3 3 3 6 7 7 6 4 5 5 3 3 5 4 5 6 6 5 4 2 3 5 6 7 7 8 8 7 7 7 7 8 10 10 8 9 6
Wind_Direction
329 327 326 324 322 320 319 318 315 313 315 315 313 313 313 314 312 311 311 310 311 309 312 314 314 317 317 320 320 322 327 325 321 306 265 250 244 235 253 261 272 226 224 256 257 248 256 237 229 240 245 249 233 221 255 256 251 252 207 211 244 242 251 254 251 265 228 356 349 36 52 29 8 11 4 11 57 142 76 76 73 63 78 106 121 136 141 139
326 324 322 320 319 316 316 316 314 313 313 314 312 308 308 311 310 311 310 309 311 310 313 314 315 316 314 319 321 329 333 322 307 281 263 256 242 231 238 248 256 237 226 243 242 231 237 231 218 225 231 236 225 209 218 224 226 228 205 203 223 233 245 256 262 290 338 355 348 36 60 39 6 6 356 353 353 357 69 89 90 85 85 99 117 131 134 135
325 323 319 317 317 315 315 314 314 314 312 313 313 309 309 309 311 311 310 310 311 312 314 314 315 315 317 320 325 340 331 315 297 266 268 253 222 220 231 243 245 238 240 242 239 231 238 248 228 212 209 227 229 219 214 198 211 215 208 234 243 246 258 265 275 299 315 11 24 27 34 26 357 351 350 24 351 344 63 113 114 113 121 120 124 132 135 136
325 321 317 316 316 313 313 311 311 311 311 312 311 312 312 310 312 311 312 314 313 314 312 313 316 314 318 323 332 344 323 307 285 248 264 209 205 208 218 231 235 239 245 244 245 247 261 273 258 223 205 223 227 233 235 207 209 208 192 222 245 256 270 273 282 317 2 31 35 12 4 5 335 329 122 53 346 337 45 137 146 140 139 136 136 137 138 136
324 321 318 317 315 312 311 310 309 310 310 310 309 311 310 311 311 310 313 314 313 313 313 315 314 312 317 325 338 342 324 322 251 222 173 168 194 201 212 225 235 237 239 238 247 259 268 273 267 246 218 229 234 235 244 222 211 225 219 221 236 247 261 275 283 332 47 33 29 7 353 344 309 310 164 202 180 253 44 148 146 143 141 140 140 138 138 134
325 320 318 315 313 311 309 308 308 309 308 308 308 309 309 309 308 309 311 310 313 315 316 314 311 317 324 329 339 338 330 244 292 243 166 159 182 199 212 222 226 224 224 229 242 259 267 263 256 254 230 234 240 246 255 237 206 222 254 235 237 245 252 274 288 309 42 65 43 356 321 315 311 306 263 263 116 112 106 117 122 128 128 123 125 130 136 135
325 321 318 315 313 311 309 308 306 305 304 304 304 305 308 308 308 309 308 309 313 313 315 313 315 328 333 340 345 310 232 261 286 257 182 173 182 199 206 207 209 205 202 218 235 245 259 256 241 235 240 234 234 247 258 254 227 221 247 244 246 255 260 272 284 302 341 64 41 328 319 301 290 292 298 35 102 104 98 100 102 103 101 99 99 106 115 114
325 322 319 314 313 312 310 308 306 303 302 302 301 303 304 303 304 303 304 306 308 312 315 314 323 333 342 357 352 248 233 253 259 216 187 189 188 192 190 190 195 191 193 216 235 242 256 253 230 226 241 234 231 237 244 256 249 231 233 239 245 260 273 282 283 288 305 340 323 302 296 279 272 285 305 87 110 109 103 102 102 100 98 99 98 95 91 84
326 323 319 315 314 312 310 307 305 303 304 305 303 303 302 302 301 301 303 306 306 310 310 315 326 334 353 349 314 308 266 226 208 175 177 198 188 178 178 183 189 185 195 223 236 246 259 247 222 220 229 244 248 248 254 261 251 231 229 234 232 250 278 284 279 272 270 261 196 241 263 265 272 275 277 155 118 115 111 109 109 111 109 108 107 103 97 86
328 324 319 315 314 312 309 306 303 304 306 306 306 304 304 305 303 302 302 303 303 303 306 318 326 344 356 306 265 322 265 186 139 134 167 188 172 169 175 181 188 186 207 232 235 242 247 241 237 226 230 251 261 269 280 271 267 265 253 258 255 252 262 267 270 262 261 253 190 210 253 255 249 218 260 154 127 124 116 113 114 113 108 108 109 102 95 87
329 325 319 316 313 311 308 304 303 304 304 305 308 308 309 311 310 307 305 302 300 296 301 316 336 2 340 297 235 259 252 174 130 133 147 164 166 173 176 183 193 193 212 235 239 240 242 249 265 270 243 300 316 282 274 270 283 295 297 296 288 286 275 274 284 278 274 249 186 201 244 256 241 204 231 159 136 127 117 117 116 114 112 110 106 96 88 86
330 325 319 315 312 309 304 302 302 302 303 307 311 313 315 318 319 317 308 306 302 297 298 313 6 25 333 296 230 245 259 226 149 136 143 165 180 184 178 183 198 204 215 233 245 248 253 266 294 340 292 328 321 279 287 299 293 275 284 299 291 296 281 273 277 268 270 234 189 202 245 262 251 226 215 147 132 118 114 118 116 117 118 119 113 102 96 98
332 324 318 315 312 307 301 301 300 301 305 309 312 314 316 320 325 323 312 306 301 300 306 315 50 22 328 267 242 253 270 249 166 140 155 179 196 199 199 198 202 218 227 241 264 280 281 268 285 332 298 309 300 301 312 308 299 245 263 283 278 294 269 252 241 244 250 226 190 179 246 265 260 245 183 131 129 119 117 122 121 124 122 121 117 111 112 117
333 326 323 318 310 303 302 300 301 304 307 311 313 314 318 324 326 324 314 306 298 291 290 334 94 67 289 249 277 281 257 232 178 164 176 187 205 209 218 222 223 233 239 254 274 295 297 276 280 315 296 294 284 308 312 303 306 274 283 282 235 254 260 239 220 226 229 221 176 155 234 253 262 258 155 133 136 127 126 132 128 131 129 124 121 121 124 133
335 331 327 319 309 303 301 300 302 305 308 311 313 315 320 323 321 319 315 308 296 270 245 290 194 165 299 276 292 281 226 214 197 200 195 193 212 217 216 225 240 254 255 262 271 291 304 308 328 301 273 272 266 279 286 282 283 244 242 274 231 212 257 245 217 212 212 214 158 152 228 253 263 252 150 140 136 128 134 144 142 137 132 132 134 134 132 146
338 334 328 320 314 306 301 300 302 303 307 311 312 318 322 320 316 316 316 305 288 244 194 294 204 192 300 282 293 271 204 209 213 206 198 198 214 220 207 206 224 240 248 253 257 278 295 311 280 249 252 265 260 255 270 288 288 237 197 245 235 213 250 250 215 202 199 189 145 163 215 270 280 191 142 143 133 135 144 150 149 138 133 136 137 141 140 152
343 339 331 326 321 315 309 302 302 303 306 310 313 320 323 319 312 309 319 300 290 239 218 277 229 191 265 276 294 283 194 205 215 198 193 203 217 215 188 186 217 221 234 243 238 251 266 200 194 238 256 253 255 265 283 274 271 282 235 236 246 236 237 214 198 192 183 162 150 186 204 202 270 136 129 143 128 136 148 152 150 138 135 136 133 141 145 154
351 346 339 335 330 323 319 310 308 307 306 310 316 321 320 315 300 294 321 131 83 322 266 280 285 183 258 257 250 234 199 202 209 192 191 208 224 222 188 179 218 207 209 239 234 227 203 202 203 237 278 263 249 229 222 241 247 295 274 244 264 267 233 177 185 196 176 156 149 193 221 222 248 197 141 166 138 126 145 156 151 139 136 137 137 143 147 158
357 354 348 343 335 329 327 321 317 312 309 312 319 320 313 308 293 275 241 170 128 343 275 233 197 168 267 235 216 228 210 185 188 185 194 206 221 234 211 191 214 202 193 216 220 210 180 197 250 249 264 254 243 221 218 243 278 317 307 289 294 296 267 185 169 184 166 147 154 183 216 231 229 209 177 178 146 121 139 149 145 144 143 147 146 145 152 165
1 358 352 345 340 336 331 325 320 315 313 317 333 335 319 317 335 328 203 209 209 228 256 225 196 230 280 282 214 215 187 156 176 191 195 202 208 233 228 199 222 216 205 210 212 209 170 169 235 227 232 237 229 213 254 319 -0 338 332 322 324 327 307 151 141 170 135 120 184 203 213 246 241 220 210 180 129 119 137 143 146 155 154 156 154 150 157 166
1 0 355 347 341 338 331 327 320 316 316 320 342 346 292 297 298 2 180 224 225 226 246 250 230 232 253 272 237 181 155 150 202 205 191 194 201 216 197 191 235 243 222 228 236 227 171 188 231 228 228 228 204 146 56 21 12 350 347 331 330 329 315 23 100 124 76 94 260 337 357 288 309 288 259 167 125 132 148 150 155 161 167 172 161 153 157 157
-0 -0 357 347 338 336 332 325 316 313 310 308 323 240 252 278 283 332 359 268 253 235 239 248 250 245 244 259 246 188 162 183 209 221 186 176 186 199 179 182 218 247 231 226 237 232 203 222 240 232 225 222 203 87 59 44 21 2 -0 342 318 303 320 1 56 76 64 69 298 354 14 312 321 332 315 128 134 157 159 156 162 164 169 180 165 152 156 153
359 358 356 350 337 331 326 319 313 305 293 275 245 230 264 288 294 332 357 287 284 260 244 237 242 249 247 258 237 188 188 190 194 223 182 168 186 195 194 197 208 230 231 219 208 191 205 236 240 226 197 192 202 41 44 38 14 331 306 321 291 287 343 346 347 70 72 71 135 33 13 316 319 350 337 348 130 151 148 144 155 165 172 180 168 151 155 158
356 356 355 350 337 323 319 315 303 294 287 272 256 255 278 292 298 351 25 261 281 267 253 237 232 235 240 255 226 181 214 201 199 209 174 173 193 178 205 230 223 233 231 220 209 206 226 232 215 179 162 164 117 63 42 46 353 299 254 240 264 286 332 5 300 13 39 12 68 67 22 314 320 351 306 307 87 130 140 130 149 170 163 163 160 151 157 164
353 353 352 350 343 321 316 313 295 303 306 274 264 273 287 292 308 20 33 269 275 261 241 233 231 223 226 238 218 191 209 208 225 210 169 177 191 177 207 226 225 245 246 236 219 215 236 219 143 126 152 156 108 104 193 143 293 305 260 234 238 264 286 260 308 31 51 342 320 90 51 298 308 320 277 289 99 156 166 141 161 171 131 144 157 158 161 162
348 350 349 349 344 325 319 311 289 323 315 264 276 295 300 316 3 26 29 268 286 257 200 187 184 197 208 213 201 196 216 219 227 214 173 177 195 197 210 219 214 234 247 252 240 212 225 209 147 120 89 57 77 347 261 152 164 290 268 268 267 269 280 266 297 48 110 257 260 123 118 268 306 309 274 273 253 216 181 120 134 130 114 138 155 157 161 160
344 345 345 345 343 332 306 292 303 319 300 275 304 322 355 24 11 19 52 345 282 224 174 163 157 179 187 186 177 164 229 227 213 206 172 173 196 193 201 246 251 236 253 340 328 285 187 142 117 107 92 65 109 264 258 184 167 235 247 279 312 304 308 303 305 313 201 225 298 131 137 180 287 288 272 282 286 227 149 112 116 118 119 142 156 164 164 163
340 340 340 340 342 329 274 281 307 313 290 294 319 334 -0 8 358 23 73 342 277 194 145 199 168 169 179 186 183 181 237 240 213 185 157 166 192 164 188 242 264 278 291 291 248 258 161 134 151 131 114 174 197 226 243 213 194 225 220 213 284 338 346 335 326 297 238 126 317 299 143 159 266 271 275 293 292 149 133 127 117 91 79 115 142 157 144 133
336 337 335 332 336 328 289 276 280 291 299 306 328 337 343 351 1 50 76 180 281 314 131 137 150 180 202 196 196 209 241 255 248 184 149 162 193 179 183 235 277 303 297 277 249 232 188 168 167 145 127 186 218 229 243 240 218 211 213 203 69 38 339 321 312 313 40 80 255 282 331 109 280 273 278 317 279 173 153 153 122 92 84 96 119 143 142 144
330 331 330 326 329 337 327 284 262 297 325 320 324 330 333 347 24 74 65 271 293 305 122 74 356 176 183 206 208 207 232 264 245 186 156 158 190 183 200 261 279 297 301 308 294 248 232 159 137 139 148 195 249 242 246 254 232 169 170 337 36 34 285 284 289 23 65 25 247 245 252 235 275 282 268 306 231 179 136 135 118 100 98 98 105 119 130 142
325 325 323 318 312 312 324 277 258 327 351 342 331 326 325 355 73 131 202 290 294 283 154 155 197 187 191 212 221 198 215 254 242 180 164 167 181 172 241 311 269 275 314 321 311 283 281 130 139 188 171 192 288 304 293 290 293 76 73 42 37 352 333 350 339 41 80 273 257 270 309 253 235 273 266 227 173 149 132 132 121 107 99 89 89 89 89 98
320 319 313 305 297 282 259 248 260 317 343 343 349 347 -0 37 156 199 242 311 293 278 305 225 196 198 197 203 227 216 198 235 250 203 152 159 181 184 186 199 203 272 309 288 300 300 284 237 210 198 176 181 184 292 306 309 318 65 73 65 63 332 344 13 334 16 176 244 258 357 19 14 225 255 263 210 80 84 131 131 116 110 103 92 90 81 76 81
317 315 306 292 284 272 256 258 272 293 322 333 352 32 75 101 237 218 221 281 260 252 316 320 282 244 209 194 215 228 204 205 230 218 162 173 180 193 203 205 204 188 203 243 318 322 298 298 278 204 164 175 156 144 242 289 286 150 152 115 126 186 32 318 285 350 262 268 289 322 47 6 285 285 275 240 100 73 89 101 100 104 103 97 92 82 77 78
315 314 308 290 274 265 260 262 263 265 300 326 11 79 157 210 249 255 251 261 259 256 272 315 310 284 235 198 192 211 207 205 211 192 177 187 179 190 211 215 216 204 175 196 267 206 284 315 280 263 149 173 177 173 187 218 250 215 192 153 149 159 151 183 196 142 228 267 306 331 108 285 290 270 279 279 99 85 85 92 90 84 83 85 83 79 80 79
316 315 312 295 274 262 256 254 243 241 272 307 59 145 195 220 245 248 257 252 251 256 240 221 293 287 255 209 200 211 204 203 218 211 197 196 185 194 205 211 221 215 153 161 236 211 206 245 242 198 161 166 178 202 192 175 309 277 274 111 155 179 149 152 179 178 181 205 312 305 195 210 207 258 284 52 90 90 96 100 94 82 80 85 81 77 79 77
320 320 310 284 270 262 253 243 226 222 237 239 162 218 211 227 244 235 266 268 263 272 254 197 247 280 281 255 233 229 208 181 195 214 231 207 191 198 200 193 213 216 168 146 232 265 181 252 287 175 156 156 138 271 186 104 122 294 329 144 214 182 135 119 233 204 100 78 270 239 224 268 3 288 278 155 110 100 107 106 99 94 88 89 85 81 80 73
326 324 305 269 262 258 251 232 206 201 206 169 189 230 232 240 247 251 272 280 285 299 308 206 207 285 303 306 280 244 202 170 176 192 225 218 207 222 223 207 195 200 173 127 116 326 139 257 302 305 160 168 167 176 347 65 109 41 305 255 276 65 106 108 116 9 78 115 254 223 192 201 161 275 278 190 148 137 132 119 103 97 93 92 91 90 85 76
324 317 291 267 253 242 236 212 186 181 172 190 224 244 253 254 256 268 283 289 296 303 298 217 174 207 245 299 292 278 166 149 204 211 211 197 203 272 272 222 172 152 109 95 100 324 54 338 299 314 342 334 153 134 15 337 53 178 244 271 46 76 63 51 108 132 148 169 277 265 224 172 132 249 286 264 192 158 140 126 117 111 106 101 98 99 95 85
314 302 284 269 253 233 215 191 175 174 176 208 232 240 247 258 259 264 270 272 279 286 278 271 158 209 202 204 268 294 357 151 244 237 220 195 210 299 343 347 97 78 55 70 99 266 59 87 286 313 346 353 1 77 135 297 310 257 259 309 48 145 170 201 183 164 163 173 245 283 319 335 266 225 280 296 76 80 76 110 119 119 114 111 113 112 107 103
303 286 268 282 278 232 198 178 166 180 212 214 230 246 258 265 262 258 261 262 261 263 265 332 355 288 236 201 211 250 349 351 307 286 258 282 288 282 319 337 71 76 59 66 72 15 40 87 242 304 344 2 348 299 182 190 329 11 355 351 346 10 80 45 323 245 137 142 188 31 43 282 269 290 321 342 74 81 78 89 97 107 109 107 112 115 114 115
303 284 268 294 248 175 165 155 162 195 210 238 238 247 260 266 273 277 282 286 284 315 46 332 318 313 296 296 240 219 175 164 260 272 249 336 359 324 275 305 131 122 90 64 52 24 38 97 177 298 334 332 277 290 324 357 110 136 137 158 157 105 84 55 323 303 43 127 152 141 161 260 262 321 336 4 62 71 94 102 104 109 108 105 106 109 114 120
258 250 287 32 128 141 135 122 215 192 200 242 237 244 257 256 263 270 274 288 297 308 45 305 292 290 270 279 312 303 312 161 210 253 225 161 57 39 354 354 32 88 91 87 76 34 89 101 83 292 277 283 293 306 325 329 319 281 143 138 122 113 114 134 226 259 273 286 142 127 143 265 269 317 348 349 350 49 108 118 119 109 105 105 101 97 99 107
221 292 301 303 140 139 108 148 234 244 223 235 243 249 256 257 261 262 256 271 302 300 294 238 256 272 261 253 270 283 300 215 222 245 44 78 80 60 17 6 26 49 55 70 60 348 4 80 76 305 295 310 315 315 317 321 330 339 10 70 74 90 110 129 190 215 214 278 74 97 44 281 280 306 338 310 318 53 105 115 115 112 110 108 103 99 97 95
284 272 298 287 192 159 115 177 238 264 241 241 245 249 258 263 266 269 271 280 301 302 306 287 268 270 322 343 332 311 116 120 253 215 140 101 102 97 49 38 51 52 37 26 65 246 299 72 100 37 342 338 332 332 333 340 3 3 332 22 50 41 56 64 33 38 33 318 106 111 180 262 275 315 357 349 17 65 92 100 107 114 115 111 109 109 110 109
308 249 274 264 219 191 164 188 217 237 261 268 257 259 274 280 285 293 295 289 287 309 324 322 330 348 1 5 346 332 0 141 182 219 188 171 157 163 159 111 86 83 71 38 51 95 144 116 111 122 160 245 271 280 352 341 352 355 334 346 1 19 43 62 66 58 11 307 47 104 172 250 295 2 16 7 34 71 88 81 91 107 113 115 117 118 124 131
321 292 326 316 279 323 270 266 267 250 267 276 274 290 292 293 308 308 302 291 311 345 331 311 330 352 359 17 8 334 330 339 18 351 353 61 148 157 132 104 93 97 91 58 55 69 78 58 90 131 175 199 235 264 331 346 334 328 326 328 334 2 29 53 72 101 165 353 350 180 158 175 289 52 50 24 40 71 99 95 78 69 86 110 118 126 138 139
340 338 15 349 317 339 335 325 340 307 284 267 262 311 294 279 288 295 321 5 5 5 347 320 338 1 351 -0 11 327 329 338 7 16 13 12 25 102 102 100 95 90 86 81 91 97 68 15 327 294 257 266 285 301 319 323 307 301 304 310 323 342 1 24 58 211 168 68 315 242 116 110 208 174 127 95 67 62 97 125 113 80 88 127 144 147 149 136
359 340 18 4 320 329 335 336 343 330 320 315 8 1 340 335 333 327 2 346 347 14 11 339 353 359 346 346 344 314 326 339 10 20 17 17 8 26 76 90 98 100 88 72 102 114 105 180 262 287 293 293 297 304 309 303 297 301 300 307 322 333 344 339 276 248 172 172 238 209 97 25 243 178 114 128 114 75 79 133 157 139 139 173 173 148 154 155
1 334 343 359 346 305 302 317 319 317 332 344 8 354 345 6 355 333 337 336 346 21 25 1 359 4 12 23 34 29 7 7 24 17 12 15 358 352 43 62 93 112 96 51 21 78 97 180 247 329 327 324 336 329 320 314 308 306 307 316 322 327 344 344 306 316 20 214 219 170 92 33 358 24 35 79 90 70 64 69 69 76 128 172 152 138 138 73
354 322 333 340 332 312 308 321 315 306 359 8 12 356 351 8 350 325 352 25 10 25 38 25 6 6 28 43 47 37 18 14 26 21 14 15 6 5 38 45 25 44 57 64 12 35 62 199 207 76 31 347 334 316 311 316 321 319 317 329 348 358 2 10 10 10 20 341 343 58 68 38 337 349 34 56 60 59 58 55 46 27 3 8 87 178 162 112
344 323 333 315 306 323 318 324 336 28 36 9 353 353 359 6 3 2 23 30 29 31 48 49 21 11 38 44 35 17 359 352 354 353 356 6 353 337 339 349 13 20 9 16 43 51 84 207 23 70 57 311 291 307 323 343 359 350 336 350 17 30 26 32 42 46 68 53 27 40 52 6 318 339 25 45 56 61 59 51 40 24 17 30 35 10 13 188
354 337 343 325 275 310 315 354 25 41 33 354 347 357 18 23 22 30 35 22 25 24 30 47 38 28 48 37 13 349 340 333 324 319 325 338 326 317 321 327 339 359 343 0 51 96 121 106 66 99 117 256 271 355 -0 12 15 342 327 3 359 354 68 65 32 30 63 75 60 65 74 329 339 8 23 36 53 62 62 52 41 35 37 43 46 35 18 359